www.pogodaiklimat.ru

Погода и климат >> Архив погоды >> Россия >> Ростовская область >> Цимлянск


АРХИВ ПОГОДЫ в Цимлянске

Время (UTC), дата Ветер
(напр.,м/с)
 
Видим.   Явления Облачность Т
(С)
Тd
(С)
f
(%)
Тe
(С)
Тes
(С)
Комфортность P
(гПа)
Po
(гПа)
Тmin
(С)
Tmax
(С)
R
(мм)
R24
(мм)
S
(см)
15 11.09 СВ 3 20 км 4/1 1000 м
[Cu hum Ac trans]
+23.9 +12.9 50 +26 +26 жарко 1026.4 1018.7 +26.5
18 11.09 СВ 3 20 км 3/0
[Ac trans]
+22.3 +10.7 48 +24 +24 комфорт 1027.1 1019.4
21 11.09 СВ 2 20 км 3/0
[Ac trans]
+20.6 +11.3 55 +23 +23 комфорт 1027.4 1019.6
00 12.09 СВ 2 20 км ясно +18.5 +11.6 64 +20 +20 1027.0 1019.1
03 12.09 С 3 20 км 4/0
[Ac trans]
+15.4 +8.8 65 +15 +15 1027.7 1019.8 +15.3
06 12.09 СВ 3 20 км ясно +20.2 +8.7 48 +22 +26 комфорт 1028.1 1020.3
09 12.09 В 3 20 км ясно +23.2 +9.4 41 +25 +34 комфорт 1027.1 1019.4
12 12.09 В 3 20 км 1/1 1000 м
[Cu hum]
+24.8 +6.7 31 +25 +29 комфорт 1025.5 1017.8
15 12.09 С 2 20 км ясно +24.0 +3.1 26 +23 +23 комфорт 1024.8 1017.1 +25.8
18 12.09 С 3 20 км ясно +21.2 +3.9 32 +21 +21 комфорт 1025.3 1017.5
21 12.09 СВ 2 20 км ясно +18.3 +9.6 57 +19 +19 1024.7 1016.8
00 13.09 СВ 2 20 км ясно +17.0 +9.0 59 +17 +17 1024.6 1016.7
03 13.09 СВ 2 20 км ясно +16.5 +11.1 70 +17 +17 1024.8 1016.9 +15.9
06 13.09 В 3 20 км ясно +20.0 +12.8 63 +22 +26 комфорт 1025.7 1017.9
09 13.09 В 2 20 км 1/1 1000 м
[Cu hum]
+24.8 +7.9 34 +25 +35 комфорт 1025.3 1017.7
12 13.09 В 2 20 км 3/3 1000 м
[Cu hum]
+26.2 +4.1 24 +25 +29 комфорт 1023.6 1016.0
15 13.09 СВ 1 20 км 1/1 1000 м
[Cu hum]
+23.9 +6.0 32 +24 +24 комфорт 1022.5 1014.8 +26.5
18 13.09 СВ 1 20 км ясно +20.0 +11.3 57 +23 +23 комфорт 1023.1 1015.3
21 13.09 ЮВ 1 20 км ясно +18.7 +7.1 47 +20 +20 1022.7 1014.9
00 14.09 штиль 0 20 км ясно +15.8 +4.5 47 +16 +16 1022.6 1014.7
03 14.09 З 1 20 км ясно +15.1 +6.2 55 +16 +16 1022.3 1014.3 +15.0
06 14.09 ЮЗ 2 20 км ясно +21.3 +8.8 45 +23 +28 комфорт 1022.3 1014.5 +14.8
09 14.09 ЮВ 1 20 км 3/3 1000 м
[Cu hum]
+26.0 +7.5 31 +26 +35 жарко 1020.6 1012.9
12 14.09 СВ 1 20 км 8/8 1000 м
[Cu hum]
+24.8 +8.1 34 +25 +26 комфорт 1019.1 1011.4
15 14.09 СВ 1 20 км 6/6 1000 м
[Cu hum]
+22.7 +11.8 50 +25 +25 комфорт 1018.0 1010.3 +26.3
18 14.09 ЮЗ 1 20 км ясно +19.2 +8.9 51 +21 +21 комфорт 1017.9 1010.1
21 14.09 ЮЗ 1 20 км 4/0
[Ac trans]
+17.8 +4.2 40 +19 +19 1017.8 1010.0
00 15.09 ЮЗ 2 20 км 6/0
[Ac trans]
+16.9 +4.6 44 +17 +17 1016.8 1009.0
03 15.09 С 2 20 км 10/0
[Ac trans Ci sp]
+15.7 +5.1 49 +16 +16 1017.4 1009.5 +15.4
06 15.09 С 4 20 км 10/0
[Ac trans Ci fib]
+18.7 +7.6 48 +19 +21 1018.5 1010.7
09 15.09 С 3
{10}
20 км 10/0
[Ac cast Ci fib]
+20.4 +8.2 45 +22 +25 комфорт 1019.2 1011.4
12 15.09 В 1 20 км 6/0
[Ac cast Ci fib]
+20.9 +9.9 49 +24 +29 комфорт 1018.7 1011.0
15 15.09 СЗ 2 20 км 4/0
[Ci fib]
+20.2 +1.1 28 +21 +21 комфорт 1019.0 1011.3 +23.0
18 15.09 С 2 20 км 3/0
[Ci fib]
+16.4 +0.6 34 +17 +17 1020.4 1012.5
21 15.09 штиль 0 20 км 10/0
[Ci fib]
+11.7 +2.3 52 +11 +11 1020.4 1012.4
00 16.09 З 1 20 км 4/0
[Ci fib]
+11.5 +1.4 50 +12 +12 1019.7 1011.7
03 16.09 ЮЗ 2 20 км ясно +11.2 +2.7 56 +10 +10 1019.4 1011.4 +10.5
06 16.09 ЮЗ 2 20 км ясно +16.6 +5.0 46 +17 +22 1018.3 1010.4
09 16.09 ЮЗ 4
{10}
20 км ясно +23.3 +2.6 26 +23 +30 комфорт 1015.3 1007.6
12 16.09 З 4
{11}
20 км ясно +24.9 +1.3 21 +24 +28 комфорт 1012.6 1004.9
15 16.09 З 2
{11}
20 км ясно +22.6 +1.3 24 +22 +22 комфорт 1012.6 1003.4 +25.3
18 16.09 З 2 20 км ясно +17.6 +1.0 33 +18 +18 1011.3 1003.5
21 16.09 З 2 20 км ясно +13.5 +2.9 49 +13 +13 1011.2 1003.3
00 17.09 З 2 20 км ясно +12.3 +5.3 62 +12 +12 1010.2 1002.3
03 17.09 З 2 20 км ясно +11.8 +6.8 71 +11 +11 1009.9 1001.9 +11.7
06 17.09 ЮЗ 4 20 км ясно +19.4 +11.7 61 +21 +24 комфорт 1009.2 1001.5
09 17.09 ЮЗ 7-13
{13}
20 км 3/0
[Ac trans]
+25.6 +9.4 36 +26 +28 жарко 1007.5 1000.0
12 17.09 З 5
{14}
20 км 8/4 600 м
[Cu med, cong Ac trans Ci fib]
+26.4 +11.7 40 +28 +29 жарко 1006.2 998.7
15 17.09 СЗ 4
{11}
20 км 10/3 1000 м
[Cu med, cong Ac und]
+20.8 +11.3 54 +23 +23 комфорт 1007.3 999.6 +27.6
18 17.09 З 2
{10}
20 км 10/6 600 м
[Sc Ac und]
+17.0 +10.9 67 +17 +17 1009.2 1001.4
21 17.09 ЮЗ 2 10 км слаб. ливневой дождь 10/10 600 м
[Cb cap]
+14.6 +13.8 95 +14 +14 1008.9 1001.1
00 18.09 ЮЗ 2 20 км {ливн. осадки} 9/9 600 м
[Sc diur, vesp]
+14.9 +14.2 96 +15 +15 1008.9 1001.1
03 18.09 З 1 20 км 10/8 600 м
[Sc diur, vesp Ci fib]
+14.5 +13.9 96 +15 +15 1008.7 1000.9 +14.2 4
06 18.09 ЮЗ 4 20 км 3/0
[Ac trans]
+16.7 +12.9 78 +16 +19 1009.4 1001.6
09 18.09 ЮЗ 4
{10}
20 км 6/0
[Ac trans]
+22.0 +12.4 54 +24 +29 комфорт 1008.2 1000.6
12 18.09 ЮЗ 6-10
{15}
20 км 6/6 1000 м
[Cu med, cong]
+23.6 +13.6 53 +26 +27 жарко 1004.4 996.9

 

Местоположение метеостанции Цимлянск (Ростовская область, Россия): широта 47.63 долгота 42.12 высота над уровнем моря 66 м.

В архиве по умолчанию представлена погода в Цимлянске за последнюю неделю. Архивные данные за месяц целиком и за предыдущие месяцы, начиная с января 2011 года, Вы можете получить, выбрав интересующий диапазон дат из раскрывающегося списка и нажав кнопку "Ввод!".


*Определитесь, кто Вы:
робот инопланетянин человек

Внимание! Время в таблицах - всемирное. Для получения местного времени необходимо прибавить поправку, которая равна 3 ч.

Смотрите также архив погоды в соседних городах и на ближайших метеорологических станциях:

Погода в Зимовниках (Ростовская область, Россия) (60 км)
Погода в Константиновске (Ростовская область, Россия) (77 км)
Погода в Котельниково (Волгоградская область, Россия) (77 км)
Погода в Морозовске (Ростовская область, Россия) (82 км)
Погода в Семикаракорске (Ростовская область, Россия) (98 км)
Погода в Нижнем Чире (Волгоградская область, Россия) (108 км)
Погода в Белой Калитве (Ростовская область, Россия) (118 км)
Погода в Гиганте (Ростовская область, Россия) (137 км)
Погода в Шахтах (Ростовская область, Россия) (139 км)
Погода в Калаче-на-Дону (Волгоградская область, Россия) (154 км)

Пояснения к столбцам:

Ветер - указаны скорость ветра в м/с - средняя за 10 мин, порывы в срок и между сроками (в фигурных скобках) и направление, откуда дует ветер: С - северный, СВ - северо-восточный, В - восточный, ЮВ - юго-восточный, Ю - южный, ЮЗ - юго-западный, З - западный, СЗ - северо-западный.
Видимость - горизонтальная дальность видимости в метрах или километрах. При видимости от 1 до 10 км при отсутствии осадков обычно наблюдается дымка, при ухудшении видимости до 1 км и менее - туман. В сухую погоду видимость может ухудшаться дымом, пылью или мглою.
Явления - указаны атмосферные явления, наблюдавшиеся в срок или в последний час перед сроком; фигурными скобками обозначены явления, наблюдавшиеся между сроками (за 1-3 часа до срока); квадратными скобками обозначены град или гололедные отложения с указанием их диаметра в мм.
Облачность - указаны через наклонную черту общая и нижняя облачность в баллах и высота нижней границы облаков в метрах; квадратными скобками обозначены формы облаков: Ci - перистые, Cs - перисто-слоистые, Cc - перисто-кучевые, Ac - высококучевые, As - высокослоистые, Sc - слоисто-кучевые, Ns - слоисто-дождевые, Cu - кучевые, Cb - кучево-дождевые. Подробнее классификацию облаков см. в Атласе облаков (PDF).
T - Температура воздуха - температура, измеренная на высоте 2 м над землей.
Td - Температура точки росы - температура, при понижении до которой содержащийся в воздухе водяной пар достигнет насыщения.
f - Относительная влажность воздуха - влажноcть воздуха, измеренная на высоте 2 м над землей.
Te - Эффективная температура - температура, которую ощущает одетый по сезону человек в тени. Характеристика душности погоды. При расчете учитывается влияние влажности воздуха и скорости ветра на теплоощущения человека.
Tes - Эффективная температура на солнце - температура, которую ощущает человек, с поправкой на солнечный нагрев. Характеристика знойности погоды. Зависит от высоты солнца над горизонтом, облачности и скорости ветра. Ночью, в пасмурную погоду, а также при ветре 12 м/с и более поправка равна нулю.
P - Атмосферное давление - приведенное к уровню моря атмосферное давление.
Po - Атмосферное давление - измеренное на уровне метеостанции атмосферное давление.
Tmin - Минимальная температура - минимум температуры воздуха на высоте 2 м над землей.
Tmax - Максимальная температура - максимум температуры воздуха на высоте 2 м над землей.
R - Количество осадков - Количество выпавших осадков за период времени, мм. При наведении курсора мыши на число - период времени, за который выпало указанное количество осадков.
R24 - Количество осадков - Количество выпавших осадков за 24 часа, мм.
S - Снежный покров - Высота снежного покрова, см. При наведении курсора мыши на число - состояние снежного покрова и степень покрытия местности в баллах.